Погода в Мьичине

Мьянма     25°24′55″N   97°22′47″E
темп.,
°C
ветер,
м/с
пор.,
м/с
влажн.,
%
обл.,
%
осадки,
мм/ч
давл.,
гПа
погр.,
м
18 апреля, вс
вс1800:30+21ссв128057 0.6 101275
03:30+18св11947 0.2 101244
06:30+19ссв12893 0.4 101494
09:30+30сз00420 0.1 1013967
12:30+35юз22260 0.1 10092661
15:30+29с244254 0.1 1006224
18:30+28св25456 0.1 1005186
21:30+22ссв24625 0.0 100768
19 апреля, пн
пн1900:30+20ссв12640 0.0 100749
03:30+17ссв23885 0.3 100760
06:30+18ссв24894 0.6 100898
09:30+31ссз11365 0.1 1009915
12:30+36юз23230 0.1 10062854
15:30+36зсз161969 0.0 10013698
18:30+25ссв375542 0.1 1005265
21:30+20ссв25810 0.0 1007152
20 апреля, вт
вт2000:30+19ссв26851 0.0 1007157
03:30+17ссв24911 0.0 100799
06:30+19ссв24790 0.0 1009150
09:30+30ссз22365 0.0 1010993
12:30+37юз132027 0.0 10063262
15:30+34с23223 0.0 10031485
18:30+28св24344 0.0 100475
21:30+23ссв23475 0.0 100771
21 апреля, ср
ср2100:30+21ссв25565 0.0 100796
03:30+19ссв24615 0.0 100784
06:30+20ссв24603 0.0 1009106
09:30+33сз11260 0.0 1010871
12:30+39зюз131643 0.0 10063488
15:30+39зсз131611 0.0 10033684
18:30+31с22283 0.0 100336
21:30+25ссв24403 0.0 100569
22 апреля, чт
чт2200:30+23ссв234687 0.0 100561
03:30+21ссв11525 0.0 100528
06:30+22с124929 0.0 100771
09:30+32с122787 0.0 1008671
12:30+39ссв12186 0.0 10052207
15:30+37с33204 0.0 10032212
18:30+31ссв23305 0.0 100264
21:30+25ссв24411 0.0 100476